Date String (YYYY-MM-DD hh:mm:ss) UTC,Instrument flags,Ambient pressure (hPa),Sample flow (lpm),Bypass flow (lpm),Sample temperature (°C),Ambient temperature (°C),ASC tube jacket temperature (°C),LED temperature (°C),Box temperature (°C),Sample RH (%),Span deviation,Mass concentration (μg/m³),Mass concentration (μg/m³),Mass concentration (μg/m³)
DateTimeUTC,F1_M11,P_M11,Q1_M11,Q2_M11,T1_M11,T2_M11,T3_M11,T4_M11,T5_M11,U1_M11,ZSPAN_M11,X0_M11,X2_M11,X1_M11
2023-01-20 08:00:00,,0825.5,4.99,0.00,22.8,21.4,00.0,31.6,24.6,08.7,0001.7,0017.42,0011.50,0010.87
2023-01-20 08:01:00,,0825.5,5.00,0.00,22.8,21.4,00.0,31.6,24.5,08.8,0000.0,0017.29,0011.52,0010.89
2023-01-20 08:02:00,,0825.5,5.01,0.00,22.8,21.3,00.0,31.6,24.5,08.7,0001.3,0017.27,0011.54,0010.91
2023-01-20 08:03:00,,0825.5,5.00,0.00,22.8,21.3,00.0,31.5,24.5,08.8,0000.0,0017.11,0011.54,0010.92
2023-01-20 08:04:00,,0825.5,5.01,0.00,22.7,21.2,00.0,31.5,24.5,08.8,0000.0,0017.08,0011.56,0010.94
2023-01-20 08:05:00,,0825.4,5.02,0.00,22.7,21.2,00.0,31.5,24.5,08.8,0000.2,0017.05,0011.62,0010.96
2023-01-20 08:06:00,,0825.4,5.00,0.00,22.7,21.2,00.0,31.5,24.5,08.8,0002.4,0017.07,0011.65,0010.97
2023-01-20 08:07:00,,0825.5,4.98,0.00,22.7,21.1,00.0,31.5,24.4,08.8,0002.4,0017.19,0011.71,0011.00
2023-01-20 08:08:00,,0825.5,5.01,0.00,22.7,21.1,00.0,31.5,24.4,08.8,0002.2,0017.61,0011.73,0011.03
2023-01-20 08:09:00,,0825.5,5.00,0.00,22.7,21.0,00.0,31.5,24.4,08.8,0002.4,0017.49,0011.71,0011.02
2023-01-20 08:10:00,,0825.5,5.00,0.00,22.6,21.0,00.0,31.5,24.4,08.8,0002.4,0017.06,0011.69,0011.02
2023-01-20 08:11:00,,0825.4,4.99,0.00,22.6,21.0,00.0,31.5,24.4,08.8,0001.9,0016.87,0011.64,0010.98
2023-01-20 08:12:00,,0825.4,4.99,0.00,22.6,21.0,00.0,31.5,24.3,08.8,0002.0,0016.70,0011.59,0010.95
2023-01-20 08:13:00,,0825.4,5.02,0.00,22.6,21.0,00.0,31.4,24.3,08.8,0001.8,0016.13,0011.51,0010.91
2023-01-20 08:14:00,,0825.5,5.00,0.00,22.6,21.3,00.0,31.4,24.3,08.8,0001.7,0016.04,0011.49,0010.89
2023-01-20 08:15:00,,0825.4,5.01,0.00,22.7,22.1,00.0,31.4,24.5,08.8,0001.8,0016.02,0011.46,0010.85
2023-01-20 08:16:00,,0825.5,5.01,0.00,22.8,23.0,00.0,31.4,24.8,08.8,0001.8,0016.13,0011.39,0010.79
2023-01-20 08:17:00,,0825.5,4.99,0.00,22.9,23.0,00.0,31.5,24.9,08.7,0002.8,0016.33,0011.33,0010.71
2023-01-20 08:18:00,,0825.5,5.00,0.00,22.9,22.6,00.0,31.5,24.8,08.7,0002.7,0016.35,0011.22,0010.61
2023-01-20 08:19:00,,0825.5,5.01,0.00,22.9,22.2,00.0,31.5,24.7,08.6,0001.8,0016.02,0011.13,0010.52
2023-01-20 08:20:00,,0825.5,5.00,0.00,22.9,21.9,00.0,31.5,24.7,08.6,0000.2,0015.86,0011.02,0010.44
2023-01-20 08:21:00,,0825.5,5.00,0.00,22.9,21.7,00.0,31.5,24.6,08.6,0002.5,0015.85,0010.97,0010.37
2023-01-20 08:22:00,,0825.5,5.00,0.00,22.8,21.6,00.0,31.5,24.6,08.6,0002.9,0015.78,0010.90,0010.30
2023-01-20 08:23:00,,0825.5,4.99,0.00,22.8,21.5,00.0,31.5,24.6,08.6,0000.0,0015.70,0010.80,0010.23
2023-01-20 08:24:00,,0825.5,5.00,0.00,22.8,21.4,00.0,31.5,24.6,08.6,0000.0,0015.67,0010.75,0010.17
2023-01-20 08:25:00,,0825.6,4.99,0.00,22.8,21.3,00.0,31.5,24.5,08.6,0000.0,0015.44,0010.64,0010.07
2023-01-20 08:26:00,,0825.5,4.99,0.00,22.8,21.2,00.0,31.5,24.5,08.6,0000.0,0015.64,0010.51,0009.98
2023-01-20 08:27:00,,0825.5,5.01,0.00,22.7,21.2,00.0,31.5,24.5,08.6,0000.0,0015.35,0010.41,0009.91
2023-01-20 08:28:00,,0825.6,5.00,0.00,22.7,21.1,00.0,31.5,24.5,08.6,0000.0,0015.20,0010.31,0009.84
2023-01-20 08:29:00,,0825.6,5.00,0.00,22.7,21.1,00.0,31.5,24.4,08.6,0000.0,0015.47,0010.23,0009.79
2023-01-20 08:30:00,,0825.6,5.00,0.00,22.7,21.1,00.0,31.5,24.4,08.6,0000.0,0015.34,0010.18,0009.72
2023-01-20 08:31:00,,0825.6,4.99,0.00,22.7,21.1,00.0,31.5,24.4,08.5,0000.0,0015.34,0010.15,0009.66
2023-01-20 08:32:00,,0825.6,5.01,0.00,22.7,21.0,00.0,31.5,24.4,08.6,0000.0,0015.26,0010.09,0009.62
2023-01-20 08:33:00,,0825.7,5.00,0.00,22.6,21.0,00.0,31.5,24.4,08.6,0000.0,0015.21,0010.02,0009.55
2023-01-20 08:34:00,,0825.7,5.00,0.00,22.6,21.0,00.0,31.4,24.4,08.6,0000.0,0015.26,0010.01,0009.52
2023-01-20 08:35:00,,0825.7,5.00,0.00,22.6,21.1,00.0,31.4,24.4,08.6,0000.0,0015.22,0009.96,0009.48
2023-01-20 08:36:00,,0825.7,5.03,0.00,22.7,21.8,00.0,31.4,24.5,08.6,0000.0,0015.32,0009.95,0009.44
2023-01-20 08:37:00,,0825.7,5.00,0.00,22.7,22.7,00.0,31.4,24.7,08.5,0000.0,0015.19,0009.97,0009.43
2023-01-20 08:38:00,,0825.7,5.01,0.00,22.8,23.0,00.0,31.5,24.9,08.5,0001.1,0015.01,0009.98,0009.43
2023-01-20 08:39:00,,0825.7,5.00,0.00,22.9,22.7,00.0,31.5,24.8,08.5,0001.5,0014.77,0009.97,0009.43
2023-01-20 08:40:00,,0825.8,4.99,0.00,22.9,22.3,00.0,31.5,24.8,08.5,0002.0,0014.26,0009.97,0009.44
2023-01-20 08:41:00,,0825.9,4.99,0.00,22.9,22.0,00.0,31.5,24.7,08.5,0002.2,0013.99,0009.95,0009.44
2023-01-20 08:42:00,,0826.0,4.99,0.00,22.9,21.8,00.0,31.5,24.6,08.5,0002.4,0014.04,0009.97,0009.47
2023-01-20 08:43:00,,0826.1,5.01,0.00,22.8,21.6,00.0,31.5,24.6,08.5,0001.8,0014.12,0009.98,0009.48
2023-01-20 08:44:00,,0825.9,4.99,0.00,22.8,21.5,00.0,31.5,24.6,08.5,0002.5,0014.34,0009.99,0009.48
2023-01-20 08:45:00,,0825.8,5.00,0.00,22.8,21.4,00.0,31.5,24.6,08.5,0003.8,0014.55,0010.00,0009.48
2023-01-20 08:46:00,,0825.8,4.98,0.00,22.8,21.4,00.0,31.6,24.5,08.5,0004.1,0014.55,0010.01,0009.51
2023-01-20 08:47:00,,0825.8,5.01,0.00,22.8,21.4,00.0,31.5,24.5,08.5,0003.4,0014.37,0010.03,0009.55
2023-01-20 08:48:00,,0825.9,5.00,0.00,22.8,21.3,00.0,31.5,24.5,08.5,0003.6,0014.18,0010.01,0009.57
2023-01-20 08:49:00,,0825.9,5.01,0.00,22.8,21.3,00.0,31.5,24.5,08.5,0003.7,0014.34,0010.02,0009.59
2023-01-20 08:50:00,,0825.9,4.99,0.00,22.7,21.2,00.0,31.5,24.5,08.5,0003.7,0014.61,0010.02,0009.60
2023-01-20 08:51:00,,0825.9,5.00,0.00,22.7,21.2,00.0,31.5,24.5,08.5,0003.2,0014.61,0010.04,0009.60
2023-01-20 08:52:00,,0826.0,5.00,0.00,22.7,21.2,00.0,31.5,24.4,08.5,0003.0,0014.72,0010.08,0009.63
2023-01-20 08:53:00,,0826.0,4.99,0.00,22.7,21.2,00.0,31.5,24.4,08.6,0002.0,0014.69,0010.10,0009.64
2023-01-20 08:54:00,,0826.0,5.00,0.00,22.7,21.1,00.0,31.5,24.4,08.6,0002.0,0014.67,0010.12,0009.64
2023-01-20 08:55:00,,0826.0,5.00,0.00,22.7,21.1,00.0,31.5,24.4,08.6,0001.8,0014.46,0010.13,0009.67
2023-01-20 08:56:00,,0826.0,5.00,0.00,22.6,21.1,00.0,31.5,24.3,08.6,0001.8,0014.23,0010.16,0009.70
2023-01-20 08:57:00,,0826.0,5.00,0.00,22.6,21.0,00.0,31.5,24.3,08.6,0002.1,0014.16,0010.15,0009.70
2023-01-20 08:58:00,,0826.0,5.00,0.00,22.6,21.1,00.0,31.4,24.3,08.6,0001.7,0014.21,0010.15,0009.70
2023-01-20 08:59:00,,0826.0,5.01,0.00,22.7,21.9,00.0,31.4,24.5,08.6,0000.0,0014.28,0010.17,0009.71
